sat.trackr.live / text

‹ back to catalog

STARLINK-30541

NORAD 58057 · 2023-158G

PAYLOAD ACTIVE UNKNOWN

§ Identity

Operator
Country
US
Launch date
2023-10-13
Launch site
AFETR
Launch vehicle
Mass (kg)
RCS (m²)

Purposes: comms

External: N2YO · Heavens-Above · Gunter

§ Orbital elements

Epoch: 2026-05-25T04:47:01.913280Z

Period
94.27 min
Inclination
43.0035°
Eccentricity
0.0001457
Mean motion
15.27586974 rev/d
Perigee alt
482.0 km
Apogee alt
484.0 km
Semi-major
6,861.2 km
B*
1.0164e-4
RAAN
314.7526°
Arg perigee
268.7202°
Mean anomaly
91.3482°
Rev number
14,527

§ Raw data

STARLINK-305411 58057U 23158G   26145.19932770  .00002536  00000+0  10164-3 0  99902 58057  43.0035 314.7526 0001457 268.7202  91.3482 15.27586974145274

JSON: /api/v1/satellites/58057 · /tle

For live sub-satellite position, see the globe view (requires WebGL).

§ Visibility from observer

Set your observer location to see the next 7 days of passes ≥ 10°. The values pass through the URL so the page stays shareable.

No JS? Fill the form by hand. The geolocation button needs JavaScript.